Hourly Data Report for April 05, 2017

OTTAWA INTL A
ONTARIO

45°19'00.000" N
75°40'00.000" W
114.90 m
6106001
71628
YOW

Download Data

Hourly Data (April 2017)
Hourly Data Report for April 5, 2017
TIME
LST
Temp Definition
°C
Dew Point Definition
°C
Rel Hum Definition
%
Precip. Amount Definition
mm

Wind Dir Definition
10's deg

Wind Spd Definition
km/h
Visibility Definition
km
Stn Press Definition
kPa
Hmdx Definition


Wind Chill Definition


Weather Definition


00:00 5.0 5.0 100   21 15 6.4 98.76     Rain, Fog
01:00 2.9 2.9 100   25 14 8.1 98.87     Rain, Fog
02:00 2.8 2.8 100   24 17 6.4 98.99     Drizzle, Fog
03:00 2.9 2.9 100   28 18 6.4 99.06     Drizzle, Fog
04:00 2.7 2.6 99   28 17 11.3 99.15     Rain
05:00 2.7 2.4 98   26 19 11.3 99.38     LegendNANA
06:00 2.5 1.9 96   27 22 16.1 99.55     LegendNANA
07:00 2.5 1.6 94   29 29 16.1 99.68     Cloudy
08:00 2.9 1.7 92   30 22 24.1 99.78     LegendNANA
09:00 4.2 2.1 86   28 22 24.1 99.86     LegendNANA
10:00 4.9 2.3 83   28 23 24.1 99.94     Mostly Cloudy
11:00 5.4 2.1 79   28 20 24.1 100.01     LegendNANA
12:00 5.9 1.4 73   28 19 24.1 100.08     LegendNANA
13:00 7.4 1.5 66   28 18 24.1 100.12     Mostly Cloudy
14:00 7.3 1.4 66   31 5 24.1 100.12     LegendNANA
15:00 7.7 1.3 64   30 5 24.1 100.03     LegendNANA
16:00 8.0 1.6 64   29 5 24.1 100.06     Mostly Cloudy
17:00 7.4 2.3 70   25 13 24.1 100.16     LegendNANA
18:00 6.7 2.4 74   29 7 24.1 100.20     LegendNANA
19:00 4.8 1.7 80   29 4 24.1 100.16     Cloudy
20:00 4.4 1.8 83   11 5 24.1 100.15     LegendNANA
21:00 3.4 1.6 88   13 8 24.1 100.13     LegendNANA
22:00 3.4 1.3 86   14 9 24.1 100.17     Cloudy
23:00 3.6 1.3 85   11 9 24.1 100.16     LegendNANA

Notes on Data Quality.

Legend

  • E = Estimated
  • M = Missing
  • NA = Not Available*
  • [empty] = Indicates an unobserved value
Date modified: